Regional Weather Roundup
Issued by NWS

Home | Current Version | Previous Version | Text Only | Print | Product List | Glossary Off
Versions: 1 2 3 4 5 6 7 8 9 10 11 12 13 14 15 16 17 18 19 20 21 22 23 24 25 26 27 28 29 30 31 32 33 34 35 36 37 38 39 40 41 42 43 44 45 46 47 48 49 50

000
ASUS43 KFSD 141902
RWRSD

WEATHER ROUNDUP FOR SOUTH DAKOTA
NATIONAL WEATHER SERVICE SIOUX FALLS SD
100 PM CST THU DEC 14 2017

NOTE: "FAIR" INDICATES FEW OR NO CLOUDS BELOW 12,000 FEET WITH NO
SIGNIFICANT WEATHER AND/OR OBSTRUCTIONS TO VISIBILITY.


SDZ001>005-009-010-012>017-142000-
NORTHWEST AND NORTH CENTRAL SOUTH DAKOTA

CITY           SKY/WX    TMP DP  RH WIND       PRES   REMARKS
BUFFALO          N/A     32  27  81 NW25      30.13F WCI  19
FAITH            N/A     33  30  88 N22G29    30.15S WCI  21
MOBRIDGE       CLOUDY    33  28  81 N18G28    30.10R WCI  22
$$

SDZ012>016-024>037-041>051-057-063-072>074-142000-
SOUTHWEST AND SOUTH CENTRAL SOUTH DAKOTA

CITY           SKY/WX    TMP DP  RH WIND       PRES   REMARKS
RAPID CTY ARPT FLURRIES  33  25  72 NW31G39   30.19S WCI  19
PIERRE         CLOUDY    34  31  88 N22G28    30.12R WCI  22
CUSTER         CLOUDY    26  13  57 NW8G21    30.11F WCI  18
ELLSWORTH AFB  FLURRIES  33  27  79 NW29G37   30.17F WCI  19
PHILIP         CLOUDY    34  32  92 NW23      30.17R WCI  22
PINE RIDGE     CLOUDY    34  23  64 N20G30    30.18F WCI  23
SPEARFISH      FLURRIES  28  25  86 NW18      30.22S WCI  16
WINNER         MIX PCPN  35  32  88 NW21      30.11S WCI  24
$$

SDZ004>011-016>023-039-040-142000-
NORTHEAST SOUTH DAKOTA

CITY           SKY/WX    TMP DP  RH WIND       PRES   REMARKS
ABERDEEN       CLOUDY    32  29  88 N16       30.08R WCI  21
WATERTOWN      CLOUDY    31  29  92 NW10      30.00F WCI  22
BROOKINGS      FLURRIES  31  27  85 NW5       30.02S WCI  26
SISSETON         N/A     26  24  92 N9        30.06F WCI  17
$$

SDZ017-020-022-023-036>040-048>070-142000-
SOUTHEAST SOUTH DAKOTA

CITY           SKY/WX    TMP DP  RH WIND       PRES   REMARKS
SIOUX FALLS    CLOUDY    36  27  69 NW6       30.03F
HURON          CLOUDY    34  31  88 N16G24    30.06S FOG     WCI  24
CHAMBERLAIN    CLOUDY    36  36 100 NW10      30.10R
MITCHELL       CLOUDY    36  30  79 NW14      30.07S
YANKTON        CLOUDY    36  24  62 NW12      30.07S
$$

ABBREVIATIONS USED IN REMARKS
   TC - TEMPERATURE IN CELSIUS
  WCI - WIND CHILL INDEX
   HX - HEAT INDEX
  VSB - VISIBILITY





USA.gov is the U.S. government's official web portal to all federal, state and local government web resources and services.